Location: Canazei
(46.4667°N, 11.7667°E)
Time: 06:49:37
(UTC+00:00)

Cosmos 2369 Rocket - Pass Details

Date: 21 April 2021
Orbit: 828 x 853 km, 71.0° (Epoch: 05 May)

Event Time Altitude Azimuth Distance (km) Brightness Sun altitude
Exits shadow 03:34:21 - 224° (SW) 2,691 4.2 -7.4°
Reaches altitude 10° 03:35:03 10° 226° (SW) 2,430 4.0 -7.2°
Maximum altitude 03:40:29 52° 302° (WNW) 1,030 2.5 -6.4°
Drops below altitude 10° 03:45:58 10° 19° (NNE) 2,457 5.3 -5.5°
Sets 03:48:30 0° 24° (NNE) 3,398 6.2 -5.1°
